RH
27 27 25 25 26 27 27 29 32 35 35 39 43 47 52 61 64 62 55 51 48 45 43 40 39 39 37 35 34 32 31 30 29 27 26 25 25 25 25 25 25 25 25 24 24 24 23 23 22 22 23 23 23 24 27 31 34 35 35 33 31 30 30 30 32 34 36 55 73 86 93 94 95 97 96 97 97 96 93 90 89 89 86 82 81 81 83 82 85 89 93 97 98 96 94 89 82 74 66 60 54 50 47
27 27 25 25 26 29 32 35 38 42 45 54 62 66 67 68 71 70 61 59 56 55 53 48 46 44 41 39 37 35 35 33 31 30 28 27 25 24 24 24 24 24 25 25 26 26 26 26 26 26 26 27 27 26 26 28 31 34 34 32 31 31 31 32 34 38 42 58 69 80 95 91 93 97 97 97 97 97 98 97 97 97 97 94 91 89 89 84 80 79 82 87 91 94 97 96 92 87 85 75 67 60 56
28 27 26 29 31 33 38 41 44 47 52 64 65 64 71 73 74 73 70 74 70 62 56 53 51 48 47 44 42 41 40 38 38 38 37 34 32 31 30 30 30 30 30 31 32 32 33 33 33 32 33 33 33 32 30 29 29 30 31 30 30 30 31 34 39 47 59 67 76 86 93 89 91 95 98 98 97 97 97 98 98 98 99 98 98 97 96 93 90 86 79 77 77 81 88 94 96 96 96 90 81 71 65
27 28 31 34 37 40 45 47 50 52 54 59 64 71 85 89 87 83 81 78 74 67 57 55 52 49 47 45 44 42 41 41 40 40 42 38 36 36 36 35 35 35 35 35 36 36 37 38 38 38 39 39 38 36 33 31 31 32 32 32 32 32 33 38 45 55 72 85 90 93 94 92 93 95 98 98 97 97 97 97 98 98 99 99 99 99 98 98 97 96 93 88 81 76 74 81 87 92 97 95 90 84 79
29 32 37 39 43 47 51 52 55 63 78 71 69 76 92 95 96 93 83 81 75 67 61 59 55 51 48 47 46 44 43 43 40 38 38 36 35 35 35 34 34 34 35 35 36 37 38 40 41 42 43 42 40 37 33 32 33 34 34 33 33 32 34 45 55 65 77 87 91 93 96 96 95 95 97 97 97 96 97 96 97 98 99 98 99 99 98 98 98 98 98 97 95 91 84 79 79 81 85 91 89 85 90
33 37 41 46 49 52 54 56 60 70 89 91 88 82 76 80 85 86 83 89 79 65 60 58 55 51 50 50 49 47 47 43 40 36 34 33 34 34 33 34 34 34 35 35 36 37 39 41 43 44 45 43 40 36 32 31 32 35 35 33 32 32 34 54 68 75 77 86 92 96 97 96 96 96 97 97 97 97 97 97 97 97 96 97 98 98 98 98 98 98 97 97 98 98 98 95 89 81 73 76 76 78 85
38 43 48 51 54 55 56 58 63 73 87 88 81 73 67 64 64 67 72 75 74 68 57 55 53 52 51 52 52 50 48 50 47 43 37 33 31 30 32 34 35 36 37 38 38 40 41 43 45 46 45 42 38 35 32 29 31 35 36 34 31 32 35 67 83 85 74 84 92 97 96 97 97 97 98 98 97 97 98 97 96 94 91 92 92 91 94 94 96 98 97 97 97 98 98 99 99 96 91 83 76 73 75
43 49 53 54 56 56 56 59 69 79 82 86 81 73 70 64 60 59 62 70 68 62 58 54 52 52 52 52 54 59 68 70 67 61 53 44 35 29 28 30 32 34 36 37 39 40 43 45 46 46 45 41 36 32 31 27 29 32 35 33 31 33 39 67 85 91 82 79 86 94 96 97 97 97 99 98 98 97 97 97 96 95 95 92 89 86 85 87 91 95 98 96 97 98 98 98 99 99 99 94 89 84 78
49 53 56 57 57 57 56 57 58 61 65 74 78 79 76 65 59 58 60 63 61 57 56 54 54 53 53 52 51 53 66 67 65 65 69 58 49 39 25 26 27 29 31 32 34 36 38 41 42 42 41 36 32 28 27 25 25 27 30 31 30 32 40 69 85 92 91 71 73 85 96 97 97 98 98 98 97 97 96 97 97 96 96 96 96 95 95 94 92 91 95 94 96 98 97 97 97 97 97 97 97 97 96
55 57 58 59 59 59 58 58 57 56 57 61 66 70 71 62 58 57 57 54 54 55 56 56 56 55 54 52 50 48 47 51 53 56 66 64 56 43 26 25 25 25 26 27 28 29 30 32 33 33 32 29 25 23 22 21 21 21 24 28 29 34 50 76 90 95 96 70 61 67 87 93 96 96 97 95 96 96 94 96 96 96 97 98 97 96 98 96 95 93 91 91 92 93 96 97 97 96 95 95 96 97 98
58 60 61 62 61 59 57 56 55 53 51 52 55 58 60 58 57 56 55 54 55 56 58 58 58 56 54 52 50 48 47 49 49 50 52 50 47 40 27 25 23 23 23 24 24 25 24 24 24 24 23 21 20 18 17 17 17 17 19 25 27 35 59 83 93 94 93 71 55 55 80 90 93 93 96 93 94 94 91 93 93 94 95 97 96 95 96 96 95 95 93 93 93 93 97 96 96 95 95 96 97 98 98
60 63 65 65 63 60 58 57 55 53 50 48 48 50 54 55 55 55 55 56 57 59 59 59 58 57 55 52 50 46 43 39 37 37 40 37 40 40 28 23 21 21 21 21 21 21 21 20 20 19 18 17 17 16 15 15 15 15 17 23 26 35 61 83 93 94 89 67 49 45 67 85 89 89 90 93 94 94 92 92 93 93 92 95 93 91 93 95 97 97 97 96 94 93 95 96 96 96 96 96 97 98 98
63 66 68 68 66 62 60 59 57 54 50 50 52 55 56 55 56 57 59 60 61 62 61 60 59 56 54 52 48 45 41 37 34 31 29 27 26 24 21 20 19 18 18 18 18 18 17 17 17 17 16 16 15 15 14 14 14 15 17 21 27 42 71 85 93 93 84 62 43 36 50 65 73 76 73 84 89 91 88 90 90 90 92 93 93 93 93 94 96 97 98 97 97 96 96 97 97 97 96 96 97 97 97
65 68 71 73 71 67 63 62 61 57 53 52 55 59 61 61 63 67 71 73 75 76 75 73 66 59 54 50 45 40 36 34 32 29 27 25 23 20 19 18 16 15 14 14 14 13 13 14 15 15 15 14 14 13 13 13 14 15 17 20 32 49 68 85 93 90 78 58 40 29 29 37 43 50 59 74 78 76 75 76 80 86 92 91 93 95 93 94 95 95 97 97 97 97 97 97 97 97 96 96 97 97 96
65 69 73 77 76 73 68 66 65 62 58 54 55 60 65 67 71 77 86 89 89 89 90 87 80 69 57 47 40 37 35 32 30 27 24 22 20 18 16 15 14 12 11 11 11 11 11 11 12 13 12 12 12 12 12 12 13 14 16 18 31 47 59 81 88 85 74 56 38 24 19 23 29 39 55 72 72 65 63 67 75 84 89 91 93 95 92 93 94 95 95 97 98 98 98 98 98 98 97 97 97 97 97
65 69 76 80 81 79 76 71 68 66 64 58 55 57 63 68 72 77 85 87 88 88 86 86 82 71 56 42 36 34 32 29 25 22 20 18 16 15 13 13 12 11 10 10 10 10 10 10 10 10 10 10 10 10 11 11 11 12 14 16 21 32 56 70 74 72 67 49 32 20 15 16 21 33 52 69 69 63 62 67 73 80 87 91 94 94 89 92 92 93 94 96 97 98 98 98 99 99 99 98 98 98 98
65 70 77 82 84 84 83 79 75 70 66 64 59 55 55 62 68 72 74 77 81 81 73 68 62 53 42 35 32 30 26 23 20 18 16 15 14 13 12 11 11 10 10 10 10 9 9 9 9 9 9 8 9 9 9 10 10 11 12 14 16 24 45 54 57 56 52 37 24 16 14 21 27 35 47 62 63 62 70 70 70 73 79 84 90 93 89 93 93 92 93 93 94 95 97 97 98 98 98 98 99 99 99
66 71 78 83 85 86 87 87 84 79 70 66 64 60 51 55 60 64 66 63 64 63 54 47 41 37 34 31 27 23 20 17 16 15 14 13 13 12 11 10 10 10 9 9 9 9 8 8 8 7 7 7 7 8 8 8 8 9 10 11 14 18 25 33 38 38 34 23 16 13 14 27 36 41 42 52 55 56 61 63 68 74 80 80 86 92 93 93 93 92 93 92 91 91 92 94 95 96 97 97 98 98 98
67 72 79 83 86 87 88 89 90 88 80 68 65 63 56 51 52 54 54 52 50 47 42 37 33 31 29 25 21 18 16 15 15 14 13 12 11 10 10 9 9 9 8 8 8 8 8 7 7 6 6 6 6 6 7 7 7 8 8 9 11 13 15 18 21 21 19 14 11 12 17 29 41 47 41 43 46 52 60 64 72 80 87 87 90 93 92 93 91 90 93 94 93 90 86 88 90 92 94 95 95 95 97
67 72 80 83 86 88 89 89 90 90 87 73 64 60 61 52 48 46 44 44 44 42 35 31 28 26 22 19 17 16 15 14 14 13 12 11 10 9 9 8 8 8 7 7 7 7 7 6 6 6 6 6 6 6 6 6 6 6 7 8 9 10 11 12 13 13 12 10 10 13 21 37 47 50 42 42 47 57 70 76 82 87 90 92 93 92 88 91 93 93 92 94 95 94 91 89 86 86 90 89 89 91 95
67 72 81 83 85 88 90 89 89 89 86 75 63 55 59 52 45 40 37 36 36 35 28 24 21 19 17 17 16 15 13 12 12 11 10 9 9 9 8 8 8 7 7 7 7 6 6 6 6 6 6 6 5 5 5 5 5 6 6 6 7 8 10 10 11 11 10 11 12 19 39 47 48 46 44 45 54 66 74 85 90 92 90 92 93 93 89 90 93 95 93 93 94 95 94 90 89 90 94 87 89 93 95
67 72 80 82 84 86 87 90 89 86 82 71 59 50 51 47 42 35 29 28 28 26 21 18 17 16 16 16 15 13 12 11 10 10 9 9 9 9 9 8 8 8 7 7 7 7 6 6 6 6 5 5 5 5 5 5 5 5 5 6 7 8 9 10 10 9 8 16 24 33 46 45 45 45 47 51 56 64 75 85 91 93 92 92 92 93 93 93 94 95 92 92 94 94 93 87 89 93 95 92 93 95 95
67 71 79 80 81 82 82 88 89 85 77 64 52 44 44 42 36 30 24 22 21 19 17 16 16 15 15 14 13 12 11 11 11 10 10 10 10 10 9 9 9 8 8 7 7 7 6 6 6 6 5 5 5 5 5 4 4 5 5 7 8 9 10 10 10 9 9 30 41 45 44 42 42 43 45 47 48 53 66 78 87 92 91 91 91 92 94 94 93 93 92 95 95 95 94 90 91 93 93 94 94 93 93
68 71 78 79 79 79 80 85 86 82 73 57 44 36 37 36 31 25 20 18 18 17 16 15 14 14 14 13 13 12 12 12 12 12 12 11 11 11 10 10 9 8 8 7 7 7 6 6 6 6 5 5 5 5 4 4 4 5 6 7 9 10 10 10 9 12 21 46 49 44 41 38 36 35 35 37 39 43 54 66 79 89 91 92 92 90 86 87 89 92 93 95 96 96 95 94 93 94 94 94 94 93 92
69 72 78 79 78 78 79 84 83 78 68 50 37 30 31 30 26 22 19 19 18 16 15 14 14 14 14 14 14 14 15 14 14 14 13 12 12 11 10 10 9 8 8 7 7 6 6 6 5 5 5 5 5 4 4 4 4 5 7 8 9 9 9 9 8 13 31 44 43 37 34 31 28 26 25 26 28 33 42 51 64 77 86 89 89 84 74 74 77 84 91 92 93 94 95 95 95 95 95 95 96 95 92
71 73 79 81 80 80 83 85 82 73 63 44 32 26 26 25 22 20 20 19 18 16 15 15 16 16 16 16 17 17 17 16 16 15 14 13 12 11 10 10 9 8 8 7 7 6 6 5 5 5 4 4 4 4 4 4 4 5 7 8 8 7 7 7 8 11 20 24 25 25 23 21 20 19 18 18 20 23 28 36 48 62 74 80 79 74 66 65 65 69 79 81 83 87 91 94 96 96 96 97 96 94 90
72 74 80 84 85 85 87 85 78 68 58 39 28 23 21 21 21 21 20 18 18 17 17 18 18 18 18 18 18 18 18 18 17 16 14 13 12 11 10 9 9 8 7 7 6 6 6 5 5 4 4 4 4 4 4 4 5 6 6 6 6 6 6 6 7 9 12 13 15 15 15 15 15 16 16 17 17 19 21 26 35 47 60 65 65 62 61 56 54 57 65 67 71 77 85 91 93 94 97 91 88 88 90
72 74 81 86 86 86 87 82 74 64 52 35 25 20 19 21 21 20 18 18 19 19 19 20 20 20 20 20 20 19 19 18 18 17 15 14 13 12 10 10 9 8 8 7 6 6 5 5 4 4 4 3 3 4 4 4 5 5 5 5 4 5 5 6 6 7 8 10 10 10 10 11 12 14 16 16 17 19 22 27 32 39 50 56 55 50 47 47 49 52 54 57 62 67 73 82 89 93 93 93 93 94 96
73 75 80 84 85 85 85 80 71 60 46 32 23 19 20 21 20 18 18 20 21 22 22 22 22 22 21 21 20 20 19 19 19 18 17 16 15 13 12 11 10 9 8 7 7 6 5 5 4 4 4 3 4 4 4 5 5 5 4 4 4 4 4 5 5 6 6 7 7 7 7 8 11 14 16 17 17 18 23 30 38 46 51 54 49 42 37 37 38 41 45 49 53 59 63 72 80 86 88 91 94 95 94
74 75 79 81 82 83 85 79 70 57 42 29 22 19 21 21 20 20 21 22 23 24 24 24 24 23 22 22 21 21 21 22 22 21 20 18 17 16 14 13 12 10 9 8 7 6 5 5 4 4 4 4 4 4 5 4 4 4 4 4 4 4 4 4 5 5 5 6 6 6 6 8 11 14 15 14 14 15 18 25 37 49 54 52 47 41 36 34 33 35 38 38 40 44 52 61 68 75 83 84 85 86 85
77 77 78 79 80 83 86 80 69 55 38 27 21 20 21 21 22 22 23 25 26 26 26 26 25 25 24 23 23 24 25 25 24 23 22 20 19 18 16 15 13 11 10 8 7 6 6 5 5 4 4 4 4 5 5 4 4 4 5 5 5 5 5 5 5 6 6 6 7 7 7 11 12 13 15 14 13 13 13 15 19 26 36 37 39 41 43 38 35 32 31 32 36 42 45 50 57 65 70 77 82 86 87
80 79 80 78 80 83 87 80 69 54 35 26 21 21 22 22 23 24 26 27 28 29 29 28 28 27 26 26 26 27 27 27 26 25 23 22 20 19 17 15 13 11 10 9 7 7 6 6 5 5 4 5 5 5 5 5 4 4 5 5 6 6 6 6 7 7 8 8 8 8 9 10 11 13 14 14 13 12 11 11 11 13 15 19 24 32 46 45 43 42 43 46 56 60 49 45 45 48 57 65 72 76 79
82 81 80 79 81 85 87 80 69 53 33 25 22 22 22 24 25 27 28 29 30 30 31 30 30 29 28 28 29 29 28 27 26 25 23 22 21 20 18 16 13 11 10 9 8 7 7 6 5 5 5 6 6 6 6 5 4 4 5 6 7 7 8 8 9 9 9 9 10 10 10 10 11 11 13 13 12 12 11 10 9 9 10 12 14 21 35 43 49 53 61 69 75 76 71 63 55 50 53 58 64 68 70
84 82 81 80 82 86 87 81 68 51 31 25 22 22 23 25 27 29 30 31 31 32 32 32 31 31 30 30 30 30 29 28 26 25 24 23 22 20 18 15 13 11 10 9 8 7 7 6 6 5 6 6 7 6 6 5 4 4 4 6 7 8 9 9 10 10 10 10 10 11 11 12 12 12 14 13 13 12 10 9 8 8 8 9 12 16 23 37 47 57 69 80 86 89 89 85 81 78 73 70 70 70 70
85 83 81 80 82 84 85 81 67 48 29 24 23 23 25 27 29 30 31 32 32 33 33 33 32 32 31 31 31 30 29 28 26 26 25 24 23 21 18 15 12 11 10 9 8 8 7 6 6 6 6 7 7 6 5 4 4 4 4 6 7 8 9 9 9 9 9 10 10 11 12 12 13 13 13 13 12 11 10 9 8 7 7 8 10 14 18 30 42 55 69 79 85 87 87 88 91 93 91 87 85 84 83
86 84 82 80 80 81 82 79 65 46 27 24 23 25 27 29 31 31 32 32 33 34 34 34 33 33 32 32 32 31 30 28 27 26 26 25 24 22 18 15 13 11 10 10 9 8 7 6 6 6 6 6 6 5 4 3 3 4 4 5 6 7 8 8 9 9 9 10 10 12 12 13 13 13 13 12 11 10 9 8 7 7 7 7 9 12 16 21 34 49 64 68 72 75 77 84 90 94 95 94 94 94 94
87 85 84 81 78 76 78 76 61 43 26 24 24 26 29 31 31 32 32 33 34 35 35 35 34 34 34 33 32 31 30 29 28 27 27 27 25 23 19 16 14 13 12 11 10 9 8 7 6 6 6 5 5 4 3 3 3 4 4 5 6 6 7 8 8 8 9 10 10 12 12 13 13 13 12 12 11 10 9 8 7 7 7 7 8 10 14 17 24 33 43 47 52 59 68 80 90 95 95 95 95 96 96
87 86 85 81 77 74 73 71 58 40 25 24 25 28 30 31 32 33 33 34 35 35 36 35 35 35 34 34 33 31 30 29 29 29 29 28 27 24 20 18 16 14 13 13 12 10 9 8 8 7 6 5 5 4 3 3 3 4 4 5 5 6 7 7 8 8 9 9 10 11 12 12 12 12 12 11 10 10 9 8 8 7 7 7 7 8 11 13 15 19 24 33 41 51 65 79 89 95 96 96 96 96 96
87 86 85 81 76 71 69 67 56 40 25 24 26 29 31 32 33 33 34 35 35 36 36 36 36 35 35 34 33 32 31 30 30 30 31 30 28 26 22 19 18 16 16 15 14 13 11 10 10 9 8 7 6 5 5 4 4 4 4 4 5 6 6 7 7 8 8 9 9 10 10 10 10 10 10 10 10 10 9 8 8 7 7 7 7 8 9 10 11 12 16 23 30 41 57 74 87 94 95 95 95 95 96
86 86 85 81 75 70 68 66 56 40 25 25 26 29 31 32 33 34 35 35 36 36 36 36 36 36 35 35 33 32 32 31 31 32 32 32 30 27 24 21 19 18 18 18 17 15 14 13 12 11 10 9 8 7 6 5 5 4 4 4 5 5 6 7 7 7 8 8 8 9 9 9 9 9 10 10 10 10 9 9 8 8 7 7 7 7 8 8 9 10 11 16 23 32 46 65 80 90 93 94 93 93 94
86 85 84 80 76 71 69 66 56 42 27 25 26 29 31 32 33 34 35 36 37 37 37 37 37 37 36 35 34 33 33 32 32 33 33 33 31 29 26 23 21 20 20 20 19 18 17 16 15 14 13 13 11 10 8 7 6 5 4 4 5 5 6 7 7 7 7 8 8 8 8 8 8 9 9 10 10 10 9 9 9 8 8 8 8 8 8 7 7 8 10 14 20 29 43 54 70 85 91 93 93 93 92
85 83 83 80 76 73 70 65 55 42 29 26 26 29 31 32 33 34 35 36 37 37 37 37 37 37 37 36 35 34 33 33 33 34 34 34 32 30 27 25 23 22 23 23 23 21 20 19 18 17 17 16 14 12 10 8 7 6 5 5 5 6 6 7 7 8 8 8 8 8 8 8 8 8 9 9 9 9 9 9 9 8 8 8 8 8 8 8 7 8 9 13 19 28 38 43 57 73 84 90 92 91 91
84 82 80 79 77 75 72 66 56 44 31 27 26 28 31 32 33 34 34 36 37 38 38 37 37 37 37 37 36 35 34 34 34 34 35 34 33 31 29 27 25 25 26 26 26 25 23 22 22 21 20 19 16 14 11 10 8 7 6 6 5 6 6 7 7 8 8 8 7 7 7 7 8 8 9 9 9 9 9 8 8 8 8 8 8 8 8 8 8 8 8 12 17 23 28 33 44 59 73 84 89 90 90
84 81 79 78 77 77 76 69 58 45 33 28 27 28 30 32 33 33 34 36 37 38 38 38 38 38 38 37 37 36 35 35 35 35 35 35 34 32 30 28 27 27 28 29 29 28 26 25 25 24 23 21 19 16 13 11 9 8 7 6 6 6 6 7 7 7 7 7 7 7 7 7 7 8 8 9 8 8 8 8 8 8 8 8 8 8 8 9 8 8 8 11 13 16 19 25 37 52 68 79 85 88 86
85 82 80 78 78 79 80 74 63 49 35 29 27 27 30 32 33 33 34 35 37 38 38 38 38 38 38 38 37 37 36 36 35 35 35 35 34 33 31 29 28 29 30 30 30 29 28 27 27 26 25 23 21 18 16 13 10 9 8 7 7 7 7 7 7 7 7 7 6 6 6 7 7 8 8 8 8 8 7 7 7 7 7 8 8 8 9 9 9 9 9 10 11 12 13 21 32 46 64 76 85 88 85
85 82 80 78 79 81 83 80 70 55 39 31 27 27 29 32 33 34 34 35 37 38 38 38 38 38 38 38 38 38 37 37 36 36 35 35 35 34 32 30 29 29 29 30 31 30 29 28 27 27 26 25 23 20 18 15 12 10 8 8 7 7 7 7 7 7 7 7 6 6 6 7 7 8 8 8 8 7 7 7 7 7 7 7 8 8 9 9 9 10 9 10 10 11 11 16 25 38 57 75 86 92 92
85 82 80 79 79 81 85 85 77 63 44 33 28 28 29 31 33 34 34 35 37 38 38 38 38 38 38 38 38 38 38 37 37 36 36 35 35 34 32 30 30 29 30 30 31 31 29 27 27 27 27 26 24 22 20 17 14 11 9 8 7 7 7 7 7 7 7 6 6 6 6 7 7 8 8 8 7 7 7 6 6 6 7 7 8 8 9 9 10 10 10 10 11 11 11 13 20 33 51 73 86 92 93
85 82 81 79 79 81 85 88 83 70 50 36 29 28 29 31 33 34 34 35 36 38 38 38 38 38 38 39 39 39 39 38 37 37 36 36 35 34 33 31 30 30 30 30 31 31 30 27 27 27 27 26 25 23 21 19 16 13 10 9 8 7 7 7 7 7 6 6 6 6 7 7 7 8 8 7 7 7 6 6 6 6 7 7 8 8 9 9 10 10 11 11 11 11 11 12 16 26 48 66 77 83 84
85 83 82 81 81 81 84 89 87 76 56 38 30 27 28 30 32 33 34 35 36 37 38 38 38 38 39 39 39 39 39 39 38 37 36 36 35 35 33 32 31 30 30 31 31 31 31 28 27 27 27 27 26 25 23 21 18 14 12 10 8 7 6 6 6 6 6 6 6 6 7 7 8 8 8 7 7 6 6 6 6 6 7 7 8 9 10 10 10 11 11 11 12 12 12 13 14 20 33 52 63 69 73
84 83 82 82 82 82 83 88 90 83 65 44 32 27 28 29 31 33 34 35 36 37 38 38 38 38 38 39 39 39 40 39 39 38 37 37 36 35 34 32 31 30 30 31 31 31 32 29 27 27 28 27 27 26 25 22 19 16 13 10 8 6 6 6 5 5 5 5 6 6 7 7 8 8 7 7 6 6 5 5 6 6 7 8 9 10 10 11 11 12 12 12 13 13 14 14 15 17 20 39 52 61 67
83 82 82 82 82 82 82 86 90 89 78 55 39 29 27 28 30 32 34 35 35 36 37 38 38 38 39 39 39 40 40 40 40 39 39 38 37 35 35 33 32 31 31 31 32 32 33 31 28 26 28 28 27 27 26 24 21 18 14 11 8 6 6 5 5 5 5 5 6 6 7 7 7 7 7 6 6 5 5 5 5 6 7 8 9 10 11 11 12 12 13 13 13 14 15 15 16 16 17 30 42 53 62
83 80 80 81 81 80 80 83 88 91 90 72 52 35 27 28 30 32 33 34 35 36 37 38 39 39 39 39 39 40 40 40 40 40 39 38 38 37 36 34 32 31 30 30 31 33 34 32 29 27 27 28 28 28 27 26 23 19 16 12 9 7 6 5 5 4 5 5 6 6 7 7 7 6 6 5 5 5 4 5 5 6 7 8 9 10 11 12 12 13 14 14 14 15 16 16 16 17 16 26 40 53 63
81 79 79 80 80 80 80 82 85 89 94 86 68 47 30 28 29 31 33 34 35 35 37 38 39 39 39 39 40 40 40 41 41 40 40 39 38 38 37 35 34 32 33 29 27 28 32 30 28 26 27 28 28 29 29 27 25 21 17 13 10 8 7 5 5 4 5 5 6 6 6 6 6 5 5 5 5 4 4 5 5 6 7 8 9 10 11 12 12 13 14 15 15 16 16 17 17 17 18 31 47 62 71
80 78 78 79 80 80 80 81 83 86 91 93 83 64 41 30 28 30 33 34 35 35 37 38 39 39 39 40 40 40 41 41 41 41 40 39 39 39 38 36 34 33 32 34 31 29 30 31 29 28 28 29 29 29 30 28 26 23 18 14 11 9 7 6 5 5 5 5 6 6 6 5 5 5 4 4 4 4 4 5 5 6 7 8 9 10 10 11 12 13 14 15 16 16 17 17 17 17 20 35 52 67 76
80 78 78 79 80 81 81 81 82 84 87 91 90 80 58 39 30 29 32 33 34 35 36 38 39 39 39 40 40 41 41 41 41 41 40 39 39 39 40 38 36 33 30 32 33 34 33 34 32 30 29 29 30 30 31 30 28 25 20 16 13 10 8 6 5 5 5 5 5 5 5 5 4 4 4 4 4 4 4 5 5 6 6 7 8 9 10 10 12 13 14 15 16 16 16 16 16 18 21 37 51 63 71
80 79 79 81 83 83 83 84 84 85 85 89 91 88 74 51 35 28 30 33 34 35 36 38 39 39 40 40 40 41 41 41 41 41 41 40 40 40 41 40 38 34 28 31 34 36 35 36 35 32 30 31 31 31 32 31 29 26 22 18 15 12 9 7 5 5 5 5 5 5 4 4 4 4 4 4 4 4 5 5 5 6 6 6 7 8 9 10 11 12 12 13 14 14 14 14 15 17 20 23 33 44 52
82 82 81 84 86 88 88 87 87 87 86 88 91 90 84 62 43 31 29 32 34 35 36 38 39 39 40 40 40 40 41 42 42 41 41 41 40 40 41 41 40 39 40 39 39 39 38 37 35 33 31 32 32 32 33 32 31 28 24 21 17 14 10 8 7 6 5 5 5 5 4 4 4 3 3 4 4 4 5 5 5 5 6 6 6 7 7 9 10 10 11 11 11 12 12 12 13 15 17 19 20 24 31
83 84 85 87 91 93 93 91 90 89 88 89 91 92 89 70 51 35 29 31 33 35 36 38 39 39 40 40 41 41 41 41 42 42 41 41 40 40 41 42 43 44 43 43 43 42 41 39 36 34 34 32 32 33 34 33 32 30 27 23 19 15 11 9 8 7 6 5 4 4 4 3 3 3 4 4 4 5 6 6 6 6 6 6 6 6 7 8 9 10 10 10 10 11 11 11 12 13 14 15 16 18 22
84 86 89 91 93 95 95 94 93 92 91 91 92 94 93 76 56 39 29 30 32 35 36 38 39 39 40 40 41 41 41 41 42 42 42 41 41 41 41 42 43 43 44 45 45 44 43 40 37 35 34 32 32 32 34 33 32 31 28 25 22 18 13 11 10 8 6 5 4 3 3 3 3 4 4 5 5 6 6 6 6 6 6 6 7 7 8 8 9 10 10 11 11 11 11 11 11 12 12 12 13 14 15
86 88 90 92 93 94 95 96 96 96 94 93 94 95 94 80 61 43 31 30 32 34 36 38 38 39 40 40 41 41 41 41 42 42 42 42 42 41 41 42 43 44 45 45 45 45 44 41 39 36 34 33 32 32 32 33 33 32 28 26 23 20 15 13 11 9 7 5 4 3 3 3 4 4 5 5 6 6 6 6 7 7 7 7 8 8 9 9 10 10 11 11 12 12 12 12 12 12 12 13 13 14 14
89 91 92 92 93 94 96 98 98 98 96 95 95 96 96 83 65 46 33 30 31 34 36 37 38 39 40 40 41 41 41 42 42 42 42 42 42 42 42 43 43 44 45 46 46 45 44 42 40 38 35 33 32 32 32 32 32 31 28 27 25 21 17 15 13 10 7 5 4 3 3 4 4 5 6 6 7 7 7 7 7 7 8 8 9 10 10 10 11 11 11 12 12 13 13 13 13 13 14 14 14 15 15
Wind_Speed
4 3 3 3 3 3 3 3 2 2 2 2 2 3 3 3 3 3 4 4 5 5 5 5 4 4 3 3 3 2 2 2 2 1 2 2 2 2 2 2 3 3 4 4 5 6 6 6 7 6 6 5 4 3 2 2 2 3 4 4 4 4 4 4 3 2 2 4 5 5 6 8 9 9 9 9 10 11 12 11 11 11 10 9 7 6 5 4 3 3 3 4 5 7 9 10 11 11 10 10 9 8 7
4 4 4 4 4 3 3 3 3 3 3 3 3 3 3 3 3 4 5 6 6 6 6 6 6 6 5 4 4 3 3 2 2 1 1 2 2 2 3 3 3 3 4 4 5 6 6 6 6 6 6 5 4 3 2 2 2 4 5 5 5 5 4 4 4 3 3 5 5 6 6 7 8 9 9 9 9 10 11 11 12 12 12 12 11 9 8 7 6 5 4 3 2 3 5 6 8 10 10 11 10 9 8
4 5 5 4 4 4 4 4 4 3 4 3 3 4 4 4 5 6 6 6 6 6 7 7 7 6 6 6 5 4 4 3 2 2 1 1 1 2 2 3 3 3 4 4 4 5 5 5 5 5 5 4 4 4 3 3 3 4 5 5 5 5 5 4 4 4 4 5 6 7 7 7 8 8 9 9 8 8 8 8 9 10 11 12 12 11 10 9 9 8 7 6 4 3 3 4 5 6 8 9 10 10 10
5 5 5 4 4 4 4 4 4 4 4 4 4 5 6 6 6 6 6 7 6 6 7 7 6 6 6 6 6 5 5 4 4 3 2 1 0 0 1 1 2 2 3 3 3 3 4 4 4 4 4 4 4 4 4 4 3 3 3 4 4 5 4 4 4 4 5 6 6 7 7 7 8 8 8 8 8 7 7 6 6 7 8 9 10 10 11 10 10 10 9 9 8 6 5 5 5 5 6 7 8 8 9
5 5 5 5 5 5 5 5 5 5 5 5 5 6 6 6 6 5 5 6 6 6 6 6 6 6 6 6 6 6 6 5 5 5 4 3 2 2 1 1 1 1 1 1 2 2 2 3 3 3 3 3 4 4 4 4 3 3 3 3 4 4 4 4 5 5 5 5 5 6 7 8 8 8 8 8 8 8 7 7 7 6 6 6 7 8 9 9 9 10 10 10 10 10 9 8 7 6 6 6 7 7 7
5 5 5 5 5 5 5 5 5 5 5 5 4 5 6 6 5 4 4 4 5 5 6 6 5 5 6 6 6 6 6 6 6 6 5 5 4 4 3 3 2 2 1 1 1 1 1 1 2 2 2 3 3 4 4 3 3 3 3 4 4 4 4 6 7 6 5 5 5 6 6 7 8 8 8 8 8 8 8 8 8 8 8 7 7 7 6 7 7 8 9 9 10 11 11 11 10 9 8 7 7 7 6
5 5 5 5 5 5 5 5 5 5 5 4 2 3 4 4 4 4 3 4 4 4 5 5 5 5 6 6 6 6 6 7 7 7 6 6 6 5 5 4 4 3 3 2 1 1 1 1 1 1 2 3 3 3 3 3 3 3 3 4 4 4 4 6 8 8 6 5 5 5 6 7 8 8 8 8 8 8 8 8 9 9 10 10 9 9 8 7 6 6 7 7 8 9 10 11 11 11 10 9 8 7 7
5 4 5 5 5 5 5 5 5 5 5 3 2 2 3 4 4 4 4 4 4 4 5 5 5 5 6 6 6 6 6 6 6 6 6 6 6 6 6 5 5 4 4 3 3 2 2 2 2 2 2 3 3 3 3 2 2 2 3 3 4 4 4 7 8 9 8 6 6 6 6 6 7 8 8 8 8 8 8 9 9 10 10 10 10 10 10 9 8 7 6 6 7 8 8 9 10 11 11 10 10 10 9
5 5 5 5 5 5 5 5 4 4 4 3 2 2 2 3 3 4 5 5 5 6 6 6 6 6 6 6 6 5 5 5 5 5 5 5 6 6 6 5 5 5 4 4 4 4 3 3 3 3 3 4 4 4 3 2 2 2 2 3 3 4 5 7 8 9 9 7 6 6 6 6 7 7 8 8 8 8 8 9 9 9 10 10 9 10 10 9 8 7 7 6 6 7 7 8 9 9 9 9 10 11 11
5 5 5 5 5 6 6 5 5 4 4 3 3 2 2 3 4 5 6 7 8 8 7 7 7 6 6 5 5 5 4 4 4 4 4 5 5 5 5 5 5 5 5 4 4 4 4 4 4 4 4 4 5 5 4 4 3 3 3 3 3 4 6 7 8 9 10 8 6 5 6 7 7 8 8 8 8 8 8 8 8 9 9 9 8 9 9 9 9 8 8 7 7 7 7 8 9 9 8 8 8 9 10
5 5 5 6 6 6 6 6 5 5 5 5 4 4 4 5 6 8 8 9 9 9 8 7 7 6 5 4 4 4 3 3 3 3 3 4 4 4 4 4 5 5 5 5 5 4 5 5 5 5 5 5 6 6 5 5 4 4 3 4 4 4 6 7 8 9 10 9 7 6 7 7 7 8 8 8 8 8 8 7 7 8 8 8 8 7 8 8 9 10 9 9 8 7 8 8 8 8 8 7 7 8 9
6 6 6 6 7 7 6 6 6 6 6 6 6 6 7 8 9 10 10 10 9 9 8 7 6 5 4 4 3 2 2 2 3 3 4 4 4 4 4 4 5 5 5 5 5 5 5 5 5 5 5 6 6 6 6 6 5 5 4 4 4 5 6 7 8 9 9 10 8 7 7 8 8 8 8 8 8 8 8 7 7 7 8 8 7 7 7 7 8 9 10 10 10 9 8 8 9 9 8 7 7 7 8
6 6 6 7 7 7 7 6 6 7 7 7 8 8 9 9 10 9 9 9 8 7 7 6 5 4 4 3 2 2 3 3 4 4 5 5 5 5 5 5 5 5 5 5 5 5 5 5 5 5 5 5 6 6 6 6 6 5 5 4 4 5 6 7 7 9 9 10 9 8 7 8 8 8 8 8 8 8 8 8 8 8 8 8 8 7 6 6 6 8 9 10 10 10 9 9 9 9 9 9 9 9 8
6 6 6 7 7 7 7 6 6 6 7 7 8 8 9 8 7 7 6 6 5 5 4 4 3 3 3 2 3 3 3 4 4 5 5 6 6 6 6 6 6 6 6 6 5 5 5 5 5 5 5 5 6 6 6 6 6 6 5 4 5 5 5 7 8 9 9 10 10 9 8 8 8 8 8 9 9 8 8 8 8 8 8 8 8 8 7 5 5 5 6 7 8 9 9 9 10 10 10 10 10 10 10
5 5 6 6 7 7 7 6 6 6 6 6 7 7 7 7 5 4 4 3 3 3 3 3 3 3 3 3 3 3 4 4 4 5 6 7 7 7 7 7 7 7 7 6 6 5 5 5 5 5 5 5 6 6 6 6 6 6 5 5 4 5 5 7 8 9 9 10 10 10 9 9 9 8 9 9 9 9 9 8 8 8 8 8 8 8 7 6 5 5 5 5 5 6 7 8 9 9 9 9 10 10 9
5 5 5 6 6 7 7 6 6 5 5 5 5 6 6 6 5 4 3 2 2 2 2 2 3 3 3 4 4 4 5 5 6 6 7 7 7 7 7 7 7 7 7 6 6 5 5 5 5 5 5 6 6 6 6 6 6 6 6 5 4 4 5 6 7 8 9 10 10 10 10 10 10 9 9 9 9 9 9 9 8 8 8 8 8 8 8 7 6 6 6 6 5 5 5 6 7 7 8 8 8 8 9
4 4 5 5 6 6 7 6 6 5 4 3 3 4 4 5 4 3 2 1 1 2 2 2 2 3 4 5 5 5 6 6 7 7 8 8 8 8 8 7 7 7 7 6 6 6 6 6 6 6 6 6 6 6 6 6 6 6 6 5 5 4 5 6 7 8 9 10 10 10 10 10 10 9 9 9 9 9 9 9 9 8 8 8 8 8 8 8 8 8 7 7 7 6 5 5 6 6 7 7 8 8 8
4 4 4 5 5 6 6 6 6 5 4 3 2 2 2 3 3 3 2 1 2 3 3 3 4 5 5 6 6 6 7 7 8 8 8 8 8 8 8 8 7 7 7 7 7 6 6 6 6 6 6 6 7 7 7 7 7 7 6 6 6 5 5 6 7 8 9 10 10 10 10 10 10 10 9 9 9 9 9 9 9 9 9 9 9 9 9 9 9 9 8 8 8 7 7 7 7 6 7 7 8 8 8
4 4 4 5 5 5 5 5 6 5 4 3 2 1 1 1 2 2 1 0 2 4 4 4 5 5 6 6 6 7 8 8 8 8 8 8 8 8 8 8 8 7 7 7 7 7 7 7 7 7 7 7 7 7 7 7 7 7 7 7 7 7 7 7 7 8 9 10 10 10 10 10 10 9 9 9 9 9 9 9 9 10 10 10 10 10 10 9 9 9 8 9 8 8 8 8 8 8 8 8 8 8 8
4 4 4 4 4 4 4 4 5 5 4 3 2 0 1 1 1 1 1 1 2 3 4 4 5 5 6 6 7 8 8 8 8 8 8 8 8 8 8 8 8 8 8 8 7 7 7 7 7 7 7 7 7 7 7 7 7 7 7 7 7 8 8 8 8 9 9 10 10 10 10 10 9 9 9 9 8 8 9 9 9 10 10 10 10 10 10 9 9 8 8 8 8 8 8 8 8 8 8 8 8 8 9
4 5 4 4 4 3 3 3 4 4 4 3 2 1 2 2 1 1 1 1 2 3 4 5 5 6 7 7 8 8 8 8 8 8 8 8 8 8 8 8 8 8 8 8 8 8 8 7 7 7 7 8 8 7 7 7 7 7 7 7 7 8 8 8 8 9 9 10 10 10 9 9 9 9 8 8 8 8 8 9 9 9 9 9 9 9 9 9 9 8 8 8 8 8 8 8 8 8 8 7 7 8 9
4 4 5 4 4 3 2 2 3 4 4 3 2 1 2 2 1 0 1 2 2 3 4 5 6 7 7 8 8 8 8 8 8 8 8 8 8 8 8 8 8 9 9 9 9 9 9 8 8 8 8 8 8 8 7 7 7 7 7 7 7 7 8 8 8 9 9 9 9 8 8 7 8 8 8 7 7 7 7 8 8 9 8 8 8 8 8 8 9 9 9 9 9 9 9 8 8 8 8 7 7 7 8
4 4 5 5 4 3 1 1 3 4 4 3 2 1 1 1 0 1 2 3 3 4 5 6 7 7 7 7 8 7 7 7 7 7 8 8 8 8 8 8 9 9 9 9 9 10 10 9 9 9 9 9 8 8 8 8 8 8 7 7 7 7 7 8 8 8 8 8 7 7 7 7 7 7 7 7 6 6 6 7 8 8 8 8 8 8 8 8 8 8 8 9 9 9 9 9 9 9 8 7 7 7 8
4 4 5 5 4 3 1 1 3 4 4 3 2 1 0 1 1 2 3 4 4 5 6 7 7 7 7 7 7 7 7 7 7 7 8 8 8 8 8 9 9 9 9 10 10 10 10 10 10 10 10 10 9 9 9 9 8 8 8 8 8 8 7 7 8 7 7 6 6 6 6 7 7 7 7 7 6 5 6 6 7 8 8 9 9 9 8 8 8 8 8 8 8 8 8 8 8 8 8 7 7 7 8
4 4 5 5 4 3 1 1 3 4 3 3 2 1 1 2 3 4 4 4 5 6 7 7 7 6 6 6 6 6 6 7 7 7 8 8 8 8 8 9 9 9 9 10 10 10 10 10 11 11 10 10 10 10 10 9 9 9 8 8 8 8 7 7 7 6 5 5 5 5 6 7 7 7 7 7 6 6 6 6 6 8 9 9 10 9 9 8 8 8 7 7 6 6 6 6 6 7 7 7 7 7 7
4 5 5 5 4 3 2 1 3 3 3 2 1 1 3 4 4 4 4 5 5 6 7 7 6 6 6 6 6 6 7 7 7 7 7 8 8 8 8 9 9 9 9 9 10 10 10 10 10 10 10 10 10 10 10 9 9 9 8 8 8 7 7 6 6 6 5 5 5 6 7 8 8 8 8 8 8 7 6 6 6 7 9 9 10 10 10 9 8 7 7 7 6 6 5 6 6 7 7 7 7 6 6
5 5 6 5 5 4 2 2 3 3 3 1 1 2 4 4 5 5 5 5 6 6 6 6 6 6 6 6 6 6 7 7 7 7 7 7 8 8 8 9 9 9 9 9 9 10 10 10 10 10 10 10 10 9 9 8 8 8 8 8 7 7 7 7 6 6 7 7 7 8 8 9 9 9 9 9 8 8 8 7 7 8 9 9 10 10 10 9 9 8 8 7 7 7 7 7 7 7 7 6 6 6 6
5 6 6 6 5 4 1 2 2 2 2 1 2 3 5 5 5 5 5 5 6 6 6 6 6 6 6 6 6 6 6 7 7 7 7 7 8 8 8 8 9 9 9 9 9 10 10 10 10 10 9 9 8 8 7 7 7 7 7 7 7 7 7 7 7 7 7 8 8 9 9 9 9 9 9 9 9 8 8 8 8 8 9 10 10 10 10 10 9 9 8 8 8 8 7 7 7 7 7 6 7 7 7
5 6 7 7 6 4 1 2 2 2 1 1 2 4 5 5 5 5 5 5 6 6 6 5 5 5 5 5 6 6 6 6 6 7 7 7 7 8 8 8 8 9 9 9 9 10 10 10 10 9 9 8 7 7 7 7 7 7 7 7 8 8 8 8 8 8 8 8 9 9 9 9 9 9 9 9 9 8 8 8 8 9 9 10 10 11 11 10 10 9 9 9 8 8 8 8 8 8 7 7 7 7 7
6 6 7 7 6 4 2 2 3 2 1 1 3 4 5 5 5 5 5 5 5 5 5 5 5 5 5 5 5 5 5 5 6 6 7 7 7 8 8 8 8 9 9 9 10 10 10 10 10 9 8 7 6 7 7 7 7 7 8 8 8 8 8 8 8 8 8 8 9 9 9 9 9 9 9 9 9 9 8 8 8 8 9 10 11 11 11 11 11 11 10 10 9 9 9 8 8 8 8 8 7 7 7
6 6 7 7 7 5 3 3 3 2 1 2 3 4 5 5 5 5 5 5 5 5 5 4 4 4 4 4 4 4 4 5 5 6 6 7 8 8 8 8 9 9 9 10 10 10 10 10 9 8 7 6 7 7 8 8 8 8 8 8 8 8 8 7 7 7 8 8 8 8 8 8 9 9 9 10 10 10 10 9 9 9 9 10 10 11 12 12 12 12 12 11 11 11 11 10 9 9 9 9 9 9 9
7 7 7 8 7 5 3 3 3 2 2 3 4 5 6 6 5 5 5 5 5 4 4 4 4 3 3 3 3 3 4 4 5 6 6 7 8 8 9 9 9 9 10 10 10 11 10 10 9 8 6 6 7 8 8 8 8 9 9 8 8 7 7 7 7 7 7 7 8 8 8 8 9 9 10 10 11 11 11 11 11 11 11 11 11 11 11 12 12 12 12 12 12 12 13 12 11 10 10 10 10 10 11
8 8 8 8 7 5 4 4 4 3 3 4 5 6 6 6 6 6 5 5 4 4 4 3 3 3 3 3 3 3 4 4 5 6 6 7 8 9 9 10 10 10 11 11 11 11 11 10 9 7 6 6 7 7 8 8 9 9 9 8 8 7 6 6 6 6 6 7 7 8 8 8 9 9 10 11 11 12 12 12 13 13 12 12 12 11 11 11 11 11 11 12 12 13 13 14 13 12 12 12 12 12 12
9 9 9 8 7 6 5 4 4 4 4 5 6 7 7 7 7 6 5 4 4 4 3 3 3 3 3 3 3 3 4 4 5 6 7 8 8 9 10 10 10 11 11 11 11 11 10 9 8 6 6 6 6 7 8 9 10 10 9 8 7 6 6 5 5 6 6 7 8 8 8 9 9 10 10 11 12 12 13 13 13 13 13 13 12 12 11 10 9 9 10 10 11 11 12 13 13 13 12 12 12 12 12
10 10 9 9 8 6 5 5 5 5 5 7 8 8 8 8 7 6 5 4 4 4 3 3 3 3 3 3 3 4 4 5 5 6 7 8 9 9 10 10 11 11 12 11 11 11 10 9 8 7 6 6 7 8 9 10 11 10 9 8 7 7 6 6 6 6 7 8 8 9 9 9 10 10 11 11 12 13 13 13 13 13 13 13 12 12 10 9 8 8 9 9 10 10 10 11 12 12 12 12 12 12 12
11 10 10 10 9 7 6 5 6 6 7 8 9 9 9 8 7 6 5 5 4 4 3 3 3 3 3 3 4 4 5 5 6 7 8 8 9 10 10 10 11 12 12 11 11 11 10 9 9 8 7 7 8 9 10 11 11 11 10 9 8 7 7 7 7 7 8 9 9 9 9 10 10 10 11 12 13 13 14 13 13 12 12 12 12 12 11 9 8 8 9 9 9 9 9 10 11 11 11 11 11 12 12
12 12 11 10 9 8 7 7 7 7 8 10 10 10 9 8 7 6 6 5 4 4 3 3 3 4 4 4 4 5 5 6 6 7 8 8 9 9 10 10 11 12 12 12 12 11 10 10 9 9 9 9 9 10 11 11 11 11 10 9 8 8 8 8 8 8 9 9 10 10 10 10 10 11 12 12 13 14 14 14 13 13 12 12 12 12 11 10 9 9 9 9 8 8 9 9 10 11 11 11 11 12 12
13 13 12 11 10 9 8 7 8 9 10 11 11 11 10 9 8 7 6 5 5 4 3 3 4 4 4 4 5 5 5 6 6 7 8 8 9 9 9 10 11 11 12 12 12 12 11 10 10 10 10 10 10 10 11 11 11 11 10 9 9 8 8 9 9 9 9 10 10 11 11 11 11 11 12 12 13 14 14 14 14 13 13 12 12 12 12 12 11 10 9 9 8 8 8 9 10 10 11 11 11 12 12
14 14 13 12 11 10 9 8 9 10 11 12 12 11 10 9 8 7 6 6 5 4 3 4 4 4 4 5 5 5 5 6 6 7 8 8 8 9 9 10 11 12 12 13 13 12 12 11 11 11 11 11 11 11 11 11 11 11 11 10 10 9 9 10 10 10 10 10 11 11 11 11 11 11 12 12 13 14 14 14 14 14 13 13 13 13 13 13 12 11 10 9 8 7 8 8 9 10 10 10 11 11 12
15 15 14 13 12 11 10 9 10 11 12 13 13 12 11 10 9 8 7 6 5 4 3 3 4 4 4 5 5 5 5 6 6 7 8 8 8 8 9 10 11 12 13 13 13 13 13 12 12 12 12 12 12 12 12 12 12 12 12 11 11 11 11 11 11 11 11 11 11 11 12 12 12 12 12 12 13 14 14 15 15 15 14 14 13 13 13 13 12 11 10 9 8 7 7 8 9 9 9 9 9 10 11
16 16 15 14 13 11 11 10 11 12 13 13 13 12 11 10 9 8 7 6 5 4 3 3 4 4 4 5 5 5 5 6 6 7 8 8 8 9 9 10 11 12 12 13 13 13 14 13 13 13 13 13 14 14 13 13 13 13 13 13 13 13 12 12 12 12 12 12 12 12 12 12 12 12 12 12 13 13 14 15 15 15 15 15 14 14 13 13 12 12 11 9 8 7 8 7 8 9 9 9 9 9 10
17 17 16 15 14 12 12 11 11 12 13 14 14 13 12 11 10 9 8 7 6 5 4 3 3 4 4 5 5 5 5 6 6 7 8 8 9 9 9 10 10 11 12 13 14 14 14 14 14 14 15 15 15 15 15 14 14 14 14 14 14 14 13 13 13 13 13 12 12 12 12 12 12 12 12 13 13 13 14 15 16 16 16 16 15 14 13 13 12 11 11 10 8 7 7 7 7 8 9 9 9 8 9
18 18 17 16 14 13 12 12 12 13 14 14 14 13 13 12 11 9 8 7 6 5 4 3 3 3 4 4 5 5 5 5 6 7 8 8 9 9 9 9 10 11 12 13 14 14 14 14 14 15 15 16 16 16 15 15 15 15 15 14 14 14 14 14 13 13 13 13 13 13 13 13 12 13 12 13 13 13 14 15 15 16 16 16 16 15 14 13 12 11 10 10 9 7 7 6 7 8 8 9 9 9 9
18 18 18 17 15 14 13 13 13 13 14 15 15 14 14 13 11 10 9 8 7 6 4 4 3 3 4 4 4 5 5 5 6 7 7 8 9 9 9 9 9 10 11 13 14 14 14 14 14 15 15 16 16 16 16 16 15 15 15 15 15 14 14 14 14 14 13 13 13 13 13 13 13 13 13 13 13 13 14 15 15 16 16 16 16 15 14 13 12 11 10 10 9 8 7 6 7 8 8 9 9 9 9
19 19 19 18 17 15 14 13 13 14 15 16 15 15 14 14 12 11 10 9 8 7 5 4 3 3 3 4 4 4 4 5 5 6 7 8 8 9 8 8 8 9 10 12 13 14 14 14 14 15 15 16 16 16 16 16 15 15 15 15 15 14 14 14 14 14 14 14 14 13 13 13 13 13 13 13 13 14 14 15 15 16 16 16 16 16 15 13 12 11 10 10 9 8 7 6 7 8 8 9 9 10 10
20 20 20 20 18 17 15 14 14 14 16 16 16 16 15 14 13 12 11 11 9 8 6 5 4 3 3 3 3 4 4 4 5 6 6 7 8 8 8 8 8 8 9 11 13 14 14 14 14 15 15 16 16 16 16 16 16 15 15 15 14 14 14 14 14 14 14 14 14 14 13 13 13 13 13 13 13 13 14 15 15 15 16 16 16 15 15 14 13 11 11 10 9 9 7 7 7 7 8 9 10 10 10
21 21 21 21 20 18 16 15 14 15 16 17 17 17 16 15 14 13 12 11 10 9 7 5 4 3 3 3 3 3 3 4 4 5 6 7 7 7 7 7 7 7 8 10 12 13 14 14 13 14 15 16 16 16 16 16 16 15 15 14 14 14 14 14 14 14 14 14 14 14 13 13 13 12 12 13 13 13 14 14 15 15 15 15 15 15 15 14 13 12 11 10 10 9 8 7 7 7 8 9 10 10 11
22 22 22 22 21 19 18 16 15 15 16 17 18 18 17 16 15 14 13 12 11 9 8 6 5 3 3 3 2 3 3 3 4 5 6 6 6 6 6 6 6 6 7 9 11 12 13 13 12 13 14 15 15 15 16 16 15 15 15 15 14 14 14 14 14 14 14 15 14 14 14 13 13 12 12 12 13 13 14 14 15 15 15 15 15 14 14 14 13 12 11 11 10 9 9 8 7 7 8 9 10 10 11
23 22 22 22 22 21 19 17 16 16 17 18 18 18 17 16 15 15 14 13 12 10 9 7 5 4 3 2 2 2 2 3 3 4 5 6 6 6 6 5 5 5 6 8 9 11 12 12 11 11 12 13 14 14 15 15 15 15 15 15 14 14 14 14 14 14 15 15 15 14 14 13 13 12 12 12 13 13 14 14 14 14 14 14 14 14 14 13 13 12 11 11 10 9 9 9 8 7 8 9 9 9 10
24 23 23 23 23 22 21 19 17 16 16 17 18 18 18 17 17 16 15 14 13 11 10 8 6 5 4 3 2 2 2 2 2 3 4 5 6 6 5 5 4 4 4 6 8 10 11 11 11 10 11 12 13 14 14 14 14 14 15 14 14 14 14 14 14 15 15 15 15 15 14 14 13 13 13 13 13 13 13 14 14 14 14 14 13 13 13 13 13 12 12 11 10 9 9 9 8 7 7 8 9 9 10
25 24 24 24 24 23 22 20 18 16 16 17 18 19 19 19 18 17 16 15 14 12 11 9 7 6 4 3 2 2 1 1 1 2 3 4 6 6 6 5 4 4 4 5 6 8 11 11 10 9 9 11 12 13 13 14 14 14 14 14 14 14 14 14 14 14 14 14 14 14 14 14 13 13 13 13 13 13 13 13 13 13 13 13 13 13 13 13 13 13 12 12 11 10 9 9 8 8 8 9 10 10 11
26 25 25 25 24 24 22 20 19 18 17 17 18 20 20 20 19 18 17 16 15 14 13 11 9 7 5 4 3 2 1 0 1 2 3 4 5 7 8 7 5 4 5 4 5 7 9 11 10 8 8 10 11 12 13 14 14 14 14 13 13 13 14 14 14 14 14 13 13 13 13 13 13 14 14 14 14 14 14 13 13 13 12 12 12 13 13 13 13 13 13 13 12 11 10 9 9 8 9 9 11 11 12
27 26 25 25 24 24 23 22 20 19 18 18 19 20 21 21 21 20 18 17 16 15 14 12 10 7 6 5 4 3 2 1 0 1 2 4 5 6 7 7 5 4 5 4 4 5 7 9 9 8 7 8 9 11 12 13 13 13 13 13 13 13 13 13 13 13 13 13 13 12 13 13 13 14 14 14 14 14 14 13 12 12 11 11 12 12 12 13 13 13 13 13 12 12 11 10 10 10 10 11 12 13 13
28 26 25 25 25 24 23 22 22 21 20 19 19 20 21 22 22 21 20 18 17 16 15 13 11 9 7 6 4 3 3 2 1 1 2 3 4 6 6 6 5 4 5 6 5 4 6 9 8 6 5 8 9 10 12 13 13 13 13 13 13 13 13 13 13 13 12 12 12 12 12 13 13 14 14 14 14 14 14 13 12 12 11 11 11 12 12 12 13 13 13 13 13 12 12 11 11 11 11 12 12 13 14
28 27 26 25 25 24 24 23 23 22 21 20 20 21 22 23 23 22 20 19 17 16 16 14 12 10 8 7 5 4 3 3 2 1 2 2 4 5 6 6 6 6 5 6 5 5 6 9 7 4 4 7 9 11 13 14 14 14 13 13 13 13 13 13 13 12 12 12 12 12 13 13 13 14 14 14 14 14 14 13 12 12 11 11 11 11 12 12 12 13 13 13 13 12 12 12 13 13 13 13 14 14 15
29 27 26 26 26 25 25 24 23 23 22 21 21 21 22 23 23 23 21 20 18 17 16 15 13 11 9 8 6 5 4 4 3 2 2 2 3 4 5 6 6 4 3 4 5 6 7 10 9 6 5 7 8 10 12 14 14 14 14 13 13 13 13 13 12 12 12 12 12 13 13 13 13 14 14 14 14 14 13 13 12 12 12 11 11 11 12 12 12 12 12 12 12 12 13 13 14 14 15 15 15 16 16
29 28 27 27 27 27 26 25 24 24 23 23 22 22 22 23 24 24 22 21 19 18 17 16 14 12 10 9 8 6 5 4 4 3 2 2 2 3 4 5 6 5 4 4 5 7 9 11 9 5 5 7 9 10 12 14 15 15 15 14 14 14 14 13 13 12 12 11 12 12 13 13 13 13 14 14 13 13 13 13 12 12 12 12 12 12 12 12 12 12 12 12 13 13 14 14 15 15 16 17 17 18 18
30 29 28 28 28 28 27 26 25 25 24 24 23 22 22 23 24 24 23 22 20 19 18 17 15 13 11 10 9 7 6 5 4 4 3 3 2 3 4 5 6 7 7 8 8 8 9 10 9 7 7 8 10 11 13 15 16 17 16 16 16 15 15 14 13 12 12 12 12 12 13 13 13 13 13 13 13 12 12 12 12 13 13 13 13 13 13 13 13 13 13 14 14 14 15 15 16 17 17 18 19 19 20
30 29 29 28 28 28 27 27 26 25 25 24 24 23 23 24 25 25 24 23 21 20 19 17 16 14 13 11 10 8 7 6 5 5 4 4 3 3 4 5 6 7 7 9 9 10 9 8 9 9 9 8 9 12 15 15 16 17 17 18 17 17 15 14 13 13 12 12 12 12 13 13 13 14 13 13 12 12 12 12 13 13 13 13 14 14 14 14 14 15 15 15 16 16 16 17 17 18 18 19 19 20 21
30 29 28 28 28 28 28 28 27 26 25 25 25 24 24 24 25 25 25 24 22 21 20 18 17 15 14 12 11 9 8 7 6 6 5 4 4 4 4 5 5 6 7 8 9 10 10 10 9 9 8 8 9 12 14 16 17 18 18 18 18 17 16 15 14 13 13 13 13 13 13 13 14 14 13 13 12 12 12 13 13 13 13 13 14 14 15 15 15 16 16 17 17 18 18 18 19 19 20 20 20 21 22
31 29 29 28 28 28 29 29 29 27 26 26 26 25 24 24 25 26 26 25 24 22 21 19 18 17 15 14 12 10 9 8 7 7 6 5 5 5 5 5 6 7 8 8 9 10 10 11 11 10 9 11 13 14 13 15 17 19 20 20 19 18 17 16 15 14 14 14 14 14 14 14 14 14 13 13 12 12 13 13 13 14 14 14 14 14 15 15 16 16 17 17 18 19 19 20 20 20 21 21 21 22 22
Wind_Direction
87 83 78 72 66 58 54 53 55 54 45 43 50 55 53 39 28 33 45 55 64 75 87 95 101 107 115 118 123 131 145 158 176 196 215 227 237 249 261 270 281 290 295 301 305 309 313 316 320 324 330 335 341 347 344 324 301 291 286 285 292 301 312 318 320 333 10 27 31 30 21 5 357 355 354 350 347 347 349 352 352 349 345 341 337 332 331 326 329 338 350 356 354 350 346 345 345 345 344 346 351 356 357
79 75 72 69 62 54 49 50 53 56 58 59 66 68 64 49 43 48 58 67 73 78 82 89 93 97 101 105 109 113 122 131 145 170 206 229 242 253 265 274 281 287 292 296 301 305 308 312 315 321 326 329 332 335 333 305 279 276 280 286 294 302 307 311 319 331 348 3 10 15 15 4 354 350 349 347 345 346 349 352 352 349 345 343 342 340 335 327 320 315 316 318 329 343 344 344 343 341 339 339 340 343 349
79 74 70 67 59 52 51 50 52 61 73 78 81 79 69 52 47 53 62 71 76 78 79 81 85 90 94 96 98 99 101 107 111 114 127 205 245 260 270 279 283 286 289 294 297 302 305 309 314 320 326 328 330 331 328 313 285 274 278 288 297 303 304 313 332 350 357 1 3 4 4 355 348 346 347 344 341 341 344 347 348 345 341 341 342 342 340 337 333 327 321 315 308 300 308 328 334 333 334 333 333 335 340
78 75 70 62 53 50 52 52 54 60 68 76 79 78 73 65 55 51 59 68 72 72 71 72 75 80 86 87 88 88 89 90 93 91 83 80 58 326 300 297 292 291 290 292 296 299 303 308 315 322 329 333 335 336 334 325 309 293 292 302 309 313 315 336 2 10 4 5 5 3 354 344 341 343 341 337 331 327 328 331 333 332 332 335 336 337 338 338 338 337 334 330 324 314 306 311 315 317 322 321 323 328 334
79 73 67 59 53 52 53 55 59 63 65 59 67 77 80 78 71 59 50 59 64 65 64 66 69 73 77 79 80 80 81 81 82 82 78 73 68 60 52 28 353 323 307 298 295 297 299 305 313 323 334 341 344 343 340 335 329 326 330 333 333 334 344 13 19 14 6 8 8 2 351 340 338 337 332 327 323 318 313 314 310 306 307 316 321 324 328 333 335 337 338 337 334 330 325 320 315 311 307 310 311 315 327
79 71 63 60 57 56 56 60 67 73 78 73 70 74 79 86 91 84 58 54 56 58 61 64 68 73 77 76 76 76 76 75 73 74 73 72 69 67 66 61 56 46 31 4 327 305 299 305 314 327 339 346 346 344 342 342 347 352 353 350 348 354 13 26 18 7 8 10 9 3 354 342 337 331 323 317 315 313 310 310 305 297 294 298 299 300 306 319 325 329 331 332 331 331 330 328 324 318 311 308 307 309 315
80 72 67 65 66 64 61 64 74 83 88 90 75 55 62 72 82 87 79 63 56 57 63 68 74 78 80 79 78 76 71 65 62 62 63 64 65 65 64 61 57 51 41 30 10 350 330 325 328 334 340 339 337 335 339 347 358 1 357 353 355 6 28 30 17 3 356 0 3 2 357 347 338 328 318 314 310 308 309 309 305 300 295 297 294 289 289 296 307 314 318 321 322 323 323 323 324 324 322 322 322 322 320
85 79 75 74 74 72 68 67 78 93 102 99 60 31 42 48 57 70 80 76 72 71 72 78 83 85 84 84 80 74 64 57 54 52 53 53 53 53 53 52 48 42 34 24 12 0 351 343 338 331 327 324 323 326 338 350 0 358 352 351 356 11 31 32 18 359 345 343 350 358 359 351 339 327 317 312 311 312 313 315 313 311 311 308 303 297 292 291 294 298 301 304 308 310 312 314 316 319 323 329 336 339 335
92 88 84 81 77 72 70 69 77 93 110 114 98 64 47 48 60 72 82 90 89 86 86 89 92 92 91 90 87 80 69 58 51 48 45 45 42 41 41 42 38 33 25 16 6 357 349 342 333 325 319 318 321 329 345 357 356 344 343 349 353 6 26 26 15 356 339 330 335 350 356 350 336 322 315 313 315 321 324 327 326 324 325 323 321 317 313 307 300 293 291 286 289 296 301 304 307 310 315 326 333 333 330
98 94 90 82 73 69 68 70 75 84 97 106 104 91 76 76 80 86 92 96 97 96 96 98 99 99 99 98 94 88 79 64 54 45 38 35 34 33 31 33 30 25 16 7 358 351 344 338 332 326 324 326 330 337 347 356 353 342 341 349 352 4 20 17 8 353 338 325 323 339 352 345 332 322 319 322 327 331 335 334 330 329 328 328 330 331 328 326 320 310 299 291 284 285 293 298 300 302 306 318 323 321 318
103 98 90 79 73 71 73 76 79 83 87 93 95 94 94 96 96 97 98 99 100 101 102 102 102 104 104 103 99 91 80 61 41 30 25 22 21 20 19 23 22 17 9 0 352 344 338 334 332 331 332 334 336 339 346 352 353 350 349 353 353 3 16 13 2 347 334 325 323 332 346 342 330 323 326 331 334 336 334 327 324 324 323 324 328 332 333 337 335 329 323 316 303 293 296 299 299 299 302 308 311 311 311
106 98 87 78 74 75 78 82 85 86 87 90 94 98 101 103 103 102 101 101 100 100 100 100 101 101 100 98 92 81 56 37 27 24 19 18 17 13 9 11 10 7 1 353 345 337 333 331 330 332 334 336 336 339 345 350 353 353 354 352 354 5 16 9 357 344 335 328 326 330 339 339 334 328 329 334 336 333 328 322 321 321 320 324 328 332 337 341 338 335 335 333 327 320 314 311 309 307 305 304 302 300 299
107 96 85 79 77 77 81 85 88 88 89 91 96 101 105 107 106 102 99 97 95 93 91 90 89 88 84 77 58 31 15 15 19 22 24 23 21 16 11 6 1 357 353 347 340 333 328 325 326 329 332 334 335 338 343 348 350 350 351 349 0 12 12 2 351 343 336 330 328 329 332 334 334 331 329 334 335 331 325 324 325 325 326 331 334 336 337 337 333 331 332 333 333 333 330 326 321 317 313 310 305 300 295
107 96 86 80 78 79 81 84 88 89 90 93 99 104 108 109 106 100 93 86 80 74 68 60 57 57 51 40 25 19 23 24 24 24 23 22 19 14 9 2 357 353 349 344 338 332 328 324 324 326 330 332 335 338 342 346 346 345 345 345 1 14 8 356 348 342 335 331 329 329 330 331 331 331 330 335 334 329 325 326 328 331 334 337 336 334 330 326 321 320 322 325 328 330 331 328 325 321 318 315 312 308 305
109 98 88 84 81 79 80 82 84 86 89 93 99 105 108 107 103 96 87 77 64 52 40 27 18 13 6 10 23 36 41 37 32 28 24 20 15 9 4 0 356 352 348 345 340 336 331 328 327 327 331 333 336 339 342 344 342 341 341 342 357 9 5 352 345 340 334 330 329 330 333 334 335 336 336 338 335 330 329 333 335 336 336 336 335 332 327 317 308 304 307 306 311 317 322 323 323 323 322 320 318 316 314
114 105 96 90 85 81 78 76 77 80 85 90 97 102 107 106 102 96 88 79 66 44 31 19 7 1 1 19 37 46 44 39 32 27 22 16 10 5 1 358 355 352 349 347 344 341 338 336 334 333 334 336 338 340 342 342 341 339 337 336 343 355 357 346 340 336 332 328 329 332 335 337 339 340 340 340 338 335 335 341 340 336 336 335 334 331 326 319 312 306 306 299 293 292 297 305 312 317 319 319 318 317 317
122 115 108 101 93 84 76 72 69 70 75 83 93 100 106 110 110 107 104 93 49 23 24 29 30 30 29 36 40 40 36 30 26 21 16 10 6 2 359 357 355 353 351 350 350 349 346 344 342 340 338 338 339 340 342 342 340 337 334 328 328 335 343 337 333 330 328 326 329 333 335 339 342 342 341 341 340 339 340 342 340 337 336 336 337 335 330 330 328 322 315 307 298 290 284 285 291 298 305 310 312 313 315
133 128 123 116 104 90 77 67 61 59 61 69 84 100 111 120 128 136 149 117 26 21 29 40 47 48 43 38 35 31 26 22 19 16 11 7 4 1 359 358 357 356 355 354 354 353 352 349 347 344 342 341 341 342 342 341 340 336 331 323 319 319 323 324 325 325 324 326 331 334 335 341 344 343 341 342 342 341 342 344 344 343 342 342 342 341 339 341 340 333 326 319 311 303 298 293 291 291 294 299 300 300 304
143 142 137 131 119 101 80 64 54 49 48 52 64 108 156 156 163 174 199 347 19 28 40 48 50 48 42 35 29 25 21 19 16 13 9 5 2 1 0 359 359 358 357 357 356 355 354 351 349 345 343 343 343 343 343 342 339 335 329 321 317 315 315 316 319 321 323 328 332 334 337 343 345 344 342 342 343 346 350 351 352 352 352 351 349 347 346 346 342 335 332 330 326 319 310 304 299 297 298 301 299 296 298
152 151 149 145 134 115 88 65 50 41 35 36 40 24 233 223 215 217 266 0 20 31 46 53 52 46 38 31 25 23 21 19 16 13 8 5 2 1 0 359 358 357 357 356 355 355 353 351 348 346 344 344 343 343 344 342 339 334 328 322 319 318 317 318 318 320 324 329 332 336 342 345 346 346 345 345 349 355 359 359 359 0 359 356 352 350 347 345 340 334 329 331 332 328 321 313 306 302 304 305 307 308 307
159 159 159 158 151 134 100 64 43 32 27 23 17 320 254 249 252 282 5 25 34 44 53 56 51 44 36 31 28 25 24 21 18 14 11 7 5 3 1 359 357 356 354 354 352 351 350 348 345 344 343 343 342 342 342 341 339 334 329 324 321 319 318 318 319 322 326 330 335 341 349 348 345 344 345 347 354 1 3 2 2 3 3 356 352 350 346 342 341 338 333 330 330 331 327 323 319 316 316 312 313 315 316
163 165 169 171 168 151 112 56 30 20 17 14 3 323 263 256 265 8 48 51 54 56 60 56 51 43 38 34 33 31 28 25 21 19 16 13 10 7 4 0 357 355 353 352 350 348 347 345 343 341 341 340 339 340 340 340 339 335 331 325 321 318 317 317 319 321 325 334 342 349 350 343 340 340 343 347 353 0 2 2 2 2 0 355 351 348 346 345 345 345 341 338 338 338 336 333 332 333 332 327 321 320 320
167 173 179 183 182 170 129 43 9 3 7 7 357 326 266 242 208 70 71 68 69 68 63 56 50 45 42 40 39 36 33 29 26 23 21 17 14 11 7 3 359 356 353 351 348 347 344 342 340 339 338 338 337 338 339 340 339 336 331 327 322 318 316 316 318 321 327 347 355 349 338 332 331 335 339 341 345 353 358 358 359 359 354 351 346 343 344 346 349 350 348 348 348 348 346 344 342 342 341 336 330 328 329
172 181 190 193 193 185 157 8 346 347 358 2 357 343 227 153 108 87 82 81 79 72 65 59 54 50 47 45 43 40 36 32 29 25 22 19 16 13 10 5 1 357 353 350 348 345 342 340 338 337 336 335 336 337 339 341 340 336 333 328 324 320 319 319 320 326 340 0 356 337 328 326 326 328 332 335 338 344 350 351 355 355 351 347 342 339 338 342 346 349 349 350 351 351 350 348 345 343 342 337 336 334 333
176 188 196 199 198 193 188 308 329 337 350 0 7 32 116 116 107 98 91 88 82 74 68 64 60 56 52 50 46 41 37 33 28 25 22 19 17 14 11 7 2 357 353 350 347 344 340 338 337 336 335 334 335 337 340 341 340 338 334 330 327 324 324 324 326 334 355 358 344 327 324 326 327 327 328 330 332 335 340 341 347 349 347 343 339 335 332 334 338 341 344 344 345 347 347 346 343 340 339 337 336 333 327
179 188 197 199 200 199 202 288 317 330 344 357 29 94 116 116 112 105 97 90 84 78 73 69 64 59 54 51 46 40 36 31 28 24 21 19 17 15 12 8 3 358 354 350 346 342 339 337 336 336 335 335 336 339 343 343 343 340 337 334 332 332 333 334 335 338 343 337 331 327 327 329 331 330 329 329 328 328 329 330 337 342 341 338 333 329 328 328 329 330 335 334 334 335 335 340 342 341 339 335 334 329 315
182 188 196 201 204 204 209 286 310 322 337 2 92 119 123 121 116 108 101 93 87 83 78 72 66 59 53 48 43 37 32 28 26 23 20 18 17 16 13 9 5 0 356 352 347 343 340 338 338 337 338 338 341 344 347 348 347 345 342 340 341 342 342 343 342 340 337 334 332 331 332 333 334 333 331 330 330 329 328 327 330 334 336 332 327 325 327 327 325 324 326 325 327 330 332 336 338 339 338 333 327 322 319
187 190 198 207 209 206 215 283 300 310 330 33 117 127 128 125 119 112 105 99 93 88 81 74 67 59 51 45 39 33 29 26 24 22 21 20 19 18 16 11 7 3 359 355 351 347 344 343 342 342 343 346 350 355 358 359 357 354 350 349 349 349 348 347 346 343 340 338 335 334 335 335 335 333 332 332 332 333 335 335 333 332 333 330 325 321 322 324 324 323 320 320 321 324 326 329 331 333 334 331 329 327 325
192 195 203 212 213 209 217 271 286 293 304 117 128 131 133 128 122 116 111 106 100 92 84 76 68 59 51 43 38 32 27 24 23 23 24 24 24 23 21 17 13 9 5 1 357 353 351 350 349 351 353 359 6 12 16 14 10 4 358 355 354 352 350 349 347 345 342 340 337 336 335 335 334 333 332 332 332 333 337 340 340 335 332 329 325 322 320 320 320 320 319 316 316 318 320 322 324 327 327 324 322 322 320
200 203 209 216 215 212 223 261 275 273 231 152 141 140 140 133 127 124 120 114 106 96 87 79 70 62 53 46 39 32 28 23 22 24 27 29 29 28 27 23 20 16 12 8 4 0 358 357 358 0 7 17 26 32 32 28 19 10 3 358 355 354 352 351 349 347 345 342 339 336 336 335 334 333 333 332 331 330 331 334 336 334 330 328 327 326 323 321 319 319 319 315 313 313 315 317 318 320 321 319 314 309 309
209 213 216 220 216 212 225 255 264 254 204 165 154 151 148 142 137 133 131 123 112 101 91 82 74 65 57 50 42 35 28 23 23 25 29 31 33 33 31 29 26 23 19 15 11 8 4 4 6 11 21 33 41 44 40 32 22 12 4 0 357 356 355 355 354 352 348 344 341 339 337 336 334 333 334 332 330 328 327 325 324 324 324 325 326 328 328 325 323 323 323 321 319 317 315 314 314 314 315 316 316 314 312
218 221 223 222 216 212 223 245 254 244 203 175 164 160 157 152 150 146 140 129 117 105 96 87 79 70 62 55 45 35 29 27 28 31 33 34 35 35 35 34 31 29 26 23 19 15 12 12 14 21 33 43 48 45 39 30 21 12 6 1 359 358 358 359 359 357 353 349 345 342 340 338 336 335 334 333 331 329 326 324 322 320 320 320 323 326 330 329 329 331 332 330 329 326 321 317 313 311 313 314 314 314 312
223 226 227 225 219 216 222 235 243 235 205 183 173 168 165 162 160 156 148 134 120 108 100 91 83 75 67 61 50 43 37 36 37 38 39 39 39 38 39 38 37 36 34 30 26 21 19 18 20 26 36 45 43 38 30 23 17 11 6 3 0 0 1 2 3 2 358 355 351 348 345 343 340 338 335 332 330 328 326 325 324 323 322 321 321 323 329 331 334 337 337 335 333 330 328 325 321 319 318 316 315 313 312
227 229 230 229 223 218 220 230 239 232 207 188 179 175 172 170 166 161 153 138 124 113 108 101 94 85 77 69 61 53 49 46 46 46 44 42 41 41 42 42 42 42 40 37 32 28 25 23 23 26 32 35 32 25 18 13 10 8 5 3 1 0 1 3 4 4 3 1 357 354 351 347 343 338 335 331 329 327 325 325 326 326 326 326 324 324 325 331 335 336 336 336 334 333 332 331 332 331 327 324 321 318 317
229 231 233 232 226 220 218 227 236 229 208 192 184 180 177 174 170 164 154 141 130 124 122 115 105 96 87 79 70 63 58 55 53 50 47 44 43 44 45 46 47 48 47 43 39 34 30 26 24 23 24 23 19 14 10 7 5 4 3 1 359 359 0 2 3 5 6 5 2 359 355 350 345 339 335 331 329 327 327 328 329 330 331 330 330 329 328 330 332 333 334 334 333 332 332 334 336 337 335 332 330 327 326
230 232 233 232 227 220 216 223 229 223 206 193 187 183 181 177 172 165 156 144 138 136 134 123 109 99 91 84 76 69 62 59 56 53 49 46 45 46 49 51 54 55 52 48 45 40 35 29 24 21 18 15 12 9 6 4 3 1 359 357 356 357 358 0 3 5 7 6 4 1 357 352 346 341 336 333 330 329 330 332 334 335 336 335 334 333 332 329 330 332 332 329 328 330 333 336 339 339 338 336 336 335 332
230 231 231 231 228 221 215 217 220 215 205 194 189 186 184 181 175 168 158 150 146 146 140 123 110 100 93 86 78 71 66 62 58 54 50 47 47 49 52 56 59 60 57 54 50 45 40 33 27 22 17 14 11 8 6 5 3 1 359 356 354 356 359 0 2 4 5 5 4 2 359 354 348 342 338 334 333 332 333 335 337 339 340 339 338 337 334 330 328 326 326 324 324 328 335 339 342 343 342 340 339 338 335
229 230 231 231 227 220 214 214 215 211 203 195 190 189 188 185 178 170 163 157 154 152 140 121 107 100 93 87 81 75 70 65 60 56 52 49 50 52 56 61 64 63 60 57 54 49 44 37 31 27 22 18 14 11 10 8 6 4 -0 356 355 356 359 1 2 2 3 3 2 -0 357 353 348 343 339 336 335 335 335 337 339 341 342 342 341 339 337 334 330 325 322 321 325 333 341 343 345 346 346 344 342 339 337
229 230 230 229 226 220 214 212 212 210 202 196 193 192 191 189 183 175 168 163 161 155 139 119 106 99 94 90 84 80 75 69 64 59 55 54 53 55 60 65 67 65 62 58 54 50 45 40 36 32 28 24 19 16 14 13 10 6 2 359 359 359 0 0 0 0 0 -0 359 357 355 351 347 343 340 338 337 336 337 338 339 341 343 344 343 342 340 339 336 332 326 323 324 331 340 345 348 349 348 346 342 340 339
230 231 231 230 226 221 215 213 212 209 202 197 195 195 196 193 187 180 172 169 166 159 142 121 107 100 96 92 88 84 79 74 68 63 60 58 57 59 63 67 68 65 61 56 52 47 44 41 38 34 31 28 24 20 18 16 12 8 5 3 2 2 1 0 360 359 359 358 357 355 353 350 347 343 341 339 338 338 338 338 339 340 342 344 344 344 343 343 342 340 335 330 327 330 336 344 348 350 349 346 342 340 341
231 232 233 232 228 223 218 215 212 209 204 199 198 199 200 197 191 185 178 175 172 165 149 127 111 103 99 95 91 86 82 77 71 66 62 60 60 62 66 69 69 65 59 54 49 45 42 40 37 34 31 27 24 21 19 16 13 10 7 5 4 3 1 -0 359 358 357 357 355 353 351 348 346 343 341 339 338 338 338 338 338 339 341 342 344 345 346 346 346 345 343 339 336 335 336 340 346 350 348 347 344 342 342
231 233 234 233 230 225 221 217 214 210 206 202 201 202 203 202 196 190 185 184 182 174 157 136 119 109 102 99 94 89 83 78 73 67 63 61 61 64 68 71 70 65 59 53 48 44 41 39 36 33 29 26 23 20 18 15 13 10 8 6 4 3 1 359 358 357 356 355 353 352 349 347 345 342 341 339 338 337 337 337 337 338 339 340 342 344 346 347 348 346 345 344 342 339 336 337 343 348 348 347 345 343 343
232 234 235 234 231 227 223 219 216 212 208 205 204 205 206 206 201 195 192 192 190 183 168 148 130 118 108 102 98 92 85 79 73 68 63 62 62 65 69 72 72 67 59 52 47 43 41 38 36 32 28 25 22 19 16 14 11 9 7 6 4 2 -0 358 356 355 354 353 352 350 348 346 344 342 340 338 337 336 336 336 336 336 336 337 339 340 343 345 347 346 344 343 342 339 333 333 339 345 347 347 345 344 345
232 235 236 235 232 229 226 222 218 214 211 209 207 208 209 209 205 201 198 199 198 192 179 162 144 127 115 107 101 94 86 78 72 66 62 60 61 65 70 74 73 68 59 52 47 43 40 39 36 32 28 25 22 19 16 14 11 8 6 4 2 0 358 356 354 353 351 351 349 348 346 344 342 340 338 337 336 335 334 334 334 334 334 335 335 337 339 342 344 344 343 341 339 336 332 331 339 345 348 348 346 345 348
231 234 235 235 233 231 229 225 221 217 214 211 210 210 211 211 209 206 204 204 202 198 188 176 159 140 124 114 106 99 88 78 70 64 59 57 58 64 70 75 74 68 59 51 45 42 40 38 36 32 28 25 22 20 17 14 11 8 5 2 -0 358 356 354 352 350 349 348 347 346 344 343 341 339 337 335 334 334 333 333 332 332 332 332 332 333 335 337 340 341 341 339 338 335 331 333 339 346 350 351 349 350 353
231 233 234 233 233 231 230 229 226 222 217 214 213 213 213 213 212 210 209 209 207 204 197 186 172 153 137 124 113 102 91 77 65 59 55 52 55 60 68 75 74 69 59 49 43 39 38 37 35 31 28 26 23 20 17 14 11 9 6 2 358 356 354 352 350 348 346 345 344 344 343 341 339 337 336 334 334 333 332 331 330 330 329 329 329 329 330 333 335 337 338 337 337 336 333 333 339 348 351 352 351 352 354
232 233 233 233 232 231 231 231 230 226 221 217 215 215 215 215 214 213 212 212 211 209 205 195 182 165 151 138 127 113 95 76 62 53 48 48 49 55 65 73 74 67 58 47 39 36 34 33 32 30 28 26 24 21 17 14 11 8 4 0 357 355 352 350 347 345 343 342 341 341 340 339 338 337 335 334 333 332 330 329 328 328 327 326 326 326 327 328 331 333 334 335 335 335 333 331 336 346 351 351 351 352 351
232 233 233 233 233 232 231 231 231 229 224 220 218 217 217 217 218 217 216 216 215 214 212 204 191 178 168 157 144 125 102 79 60 48 42 40 43 48 57 68 71 65 55 45 38 32 30 29 29 29 27 25 24 21 17 14 10 7 3 360 357 354 351 348 345 343 340 339 339 338 338 338 337 336 335 333 332 330 329 327 326 325 324 323 323 323 324 325 326 328 329 330 331 332 332 330 332 340 348 348 348 348 347
232 232 232 233 233 232 231 231 231 231 228 224 220 219 219 220 221 221 220 218 218 219 218 213 202 190 185 178 161 140 112 84 62 47 39 35 37 41 47 56 66 65 53 43 35 28 24 24 25 27 26 24 23 21 18 14 10 6 3 359 356 352 349 346 343 341 339 338 337 337 336 336 336 335 334 332 331 329 327 326 325 324 323 322 321 321 321 322 322 323 324 325 325 327 327 327 327 331 341 344 344 344 343
232 231 231 231 232 232 231 231 231 231 231 227 224 221 221 222 223 224 223 221 221 222 224 221 214 204 198 194 184 161 127 89 62 47 38 34 34 37 41 49 57 57 48 39 31 24 19 18 20 24 24 23 22 20 18 14 10 6 3 359 355 351 348 345 342 340 338 337 336 335 335 334 334 333 332 331 330 328 327 326 325 324 323 322 321 320 320 320 320 320 319 319 319 319 321 322 323 324 331 338 339 338 337
233 232 231 231 231 232 231 230 230 231 233 231 227 224 222 222 224 225 225 224 223 225 228 227 223 216 212 208 202 187 155 103 56 41 32 32 33 35 37 41 44 41 31 24 20 17 12 10 12 17 20 20 20 19 17 14 10 7 3 359 355 351 347 344 341 339 337 336 335 333 332 331 331 331 331 330 329 328 328 328 327 326 324 323 321 320 320 320 319 318 317 316 315 315 315 317 319 321 327 335 337 335 334
234 233 232 231 231 232 232 231 231 232 234 234 232 228 225 224 224 225 226 226 226 227 230 230 227 222 219 217 213 207 200 180 32 26 24 26 28 29 31 33 35 32 21 10 5 5 3 359 359 7 14 15 15 16 15 13 10 7 2 358 354 350 346 343 340 339 336 335 333 331 330 329 329 330 330 329 328 328 329 330 329 328 326 324 322 321 320 320 319 318 317 316 315 314 313 314 316 321 327 334 336 335 334
235 235 234 233 232 232 232 232 232 233 235 237 236 233 229 227 226 226 227 227 227 229 231 232 230 225 225 224 222 219 218 227 311 10 17 21 23 24 26 31 38 41 26 3 352 356 357 348 342 346 5 9 10 11 13 12 9 6 2 358 353 349 346 343 341 338 336 334 331 329 328 328 329 329 329 328 328 329 331 332 331 330 327 325 323 321 320 319 318 318 317 317 316 316 315 315 317 322 329 333 335 334 334
236 236 236 234 233 233 233 233 233 234 236 239 240 239 235 231 229 228 228 229 229 230 233 233 232 229 228 228 228 227 229 234 257 335 7 17 19 22 26 30 34 37 35 24 10 357 355 346 331 320 344 359 2 6 9 9 8 5 2 358 353 350 346 343 341 338 335 332 330 328 328 328 329 329 328 328 329 330 332 332 332 330 328 325 323 321 319 318 317 317 317 317 317 317 317 317 319 324 328 330 331 332 333
236 237 237 236 235 234 234 235 235 237 238 241 242 242 239 235 232 231 230 230 231 232 234 234 233 232 232 232 231 231 234 239 251 286 340 6 15 18 22 23 21 17 16 19 18 6 352 355 349 325 327 347 354 359 4 6 6 4 1 357 353 350 347 344 341 339 336 333 330 329 329 330 329 329 328 328 329 331 332 333 332 330 328 325 322 320 319 317 316 316 316 317 317 317 318 319 320 323 324 326 328 329 330
236 237 238 238 237 236 235 236 237 239 240 242 244 244 242 238 235 232 232 232 233 234 235 235 235 234 234 235 235 234 236 242 250 265 303 342 5 14 16 20 18 8 351 357 358 356 357 2 2 351 331 341 348 354 358 1 2 1 359 356 353 350 347 345 343 341 338 335 332 331 330 330 330 329 329 329 330 332 333 333 332 331 328 325 322 320 318 317 316 315 315 315 316 316 317 318 319 319 320 319 321 323 325
236 237 237 238 238 237 237 237 238 240 242 244 246 246 244 240 236 233 232 232 233 235 236 236 235 235 236 237 237 237 239 244 250 260 277 307 340 1 10 12 15 17 16 3 356 356 359 4 4 350 327 337 345 351 354 357 359 358 357 355 352 350 348 347 346 344 341 337 335 332 331 331 330 330 330 331 332 333 333 333 333 331 329 326 323 321 319 318 317 317 316 316 315 315 316 316 316 317 316 316 316 317 319
236 237 238 238 239 238 238 238 239 240 242 245 247 247 245 240 235 232 231 232 234 235 236 236 236 236 238 239 239 240 242 245 252 260 269 288 310 333 352 1 5 7 8 7 5 4 2 5 8 2 342 339 342 348 351 353 354 354 353 352 351 350 349 348 347 345 342 339 336 334 333 332 332 332 333 334 334 334 334 334 333 332 330 327 324 322 321 320 320 320 319 318 317 317 316 315 315 315 314 314 314 315 315
237 238 239 239 240 240 240 239 239 240 243 246 248 248 245 240 235 232 231 232 234 236 236 237 237 238 239 240 241 242 244 248 253 259 269 280 292 311 331 341 349 354 357 359 1 2 3 4 5 3 357 345 340 344 347 349 350 350 349 349 349 349 348 348 347 345 342 340 338 337 336 335 334 335 336 337 337 336 336 335 334 333 331 329 326 324 323 322 322 321 321 320 319 318 317 316 315 315 314 314 314 313 313
237 238 240 240 241 242 242 241 240 240 242 246 248 248 245 241 236 232 231 232 233 235 236 237 237 239 240 241 242 243 245 249 254 258 265 275 283 296 314 328 337 342 346 350 353 356 359 1 2 2 359 349 345 344 345 345 346 346 346 346 346 347 346 346 345 345 343 342 341 340 340 339 338 338 339 339 339 339 338 337 336 334 332 330 328 326 324 323 322 321 320 319 319 318 317 316 316 315 315 314 314 313 312
235 237 239 240 241 243 243 242 241 241 243 246 248 248 246 241 236 233 231 231 232 234 235 236 237 239 240 242 243 244 246 250 254 258 263 270 277 288 302 316 326 334 340 343 347 350 353 355 358 359 356 354 353 350 345 342 343 343 343 343 343 343 343 343 344 345 344 343 343 343 343 343 342 341 341 341 341 341 340 339 337 336 334 332 330 328 326 324 322 321 320 319 318 317 316 316 316 315 315 314 314 313 311